When you browse on this site, cookies collect data to enhance your experience and personalize the content and advertising you see.
Visit our Privacy Policy to learn more. By continuing to use the site, you agree to this use of cookies and data.
  • In Österreich
  • Länderverzeichnis
  • Für 7 Tage
  • Wassertemperatur
  • Wetterkarte
  • News
  • Widgets
  • user-avatar
    Anmelden

    Stündliche Wetter López

    Heute, 12 Dezember, Donnerstag

    Zeit Temperatur Niederschläge Wind Luftdruck Luftfeuchtigkeit
    00:00 +15°C° 1.5 mm 0 m/S 623 mmHg 98%
    01:00 +15°C° 1.5 mm 0 m/S 622 mmHg 98%
    02:00 +15°C° 1.5 mm 0 m/S 622 mmHg 98%
    03:00 +15°C° 1.5 mm 0 m/S 622 mmHg 98%
    04:00 +15°C° 1.5 mm 0 m/S 622 mmHg 98%
    05:00 +15°C° 1.5 mm 0 m/S 622 mmHg 99%
    06:00 +15°C° 1.5 mm 0 m/S 623 mmHg 99%
    07:00 +15°C° 1.5 mm 0 m/S 623 mmHg 99%
    08:00 +16°C° 0.4 mm 0 m/S 623 mmHg 96%
    09:00 +17°C° 0.4 mm 0 m/S 624 mmHg 94%
    10:00 +17°C° 0.4 mm 0 m/S 624 mmHg 91%
    11:00 +21°C° 0.2 mm 1 m/S 624 mmHg 86%
    12:00 +22°C° 0.2 mm 1 m/S 624 mmHg 81%
    13:00 +23°C° 0.2 mm 2 m/S 624 mmHg 76%
    14:00 +22°C° 1.2 mm 1 m/S 623 mmHg 82%
    15:00 +21°C° 1.2 mm 1 m/S 622 mmHg 88%
    16:00 +20°C° 1.2 mm 1 m/S 622 mmHg 94%
    17:00 +19°C° 2 mm 1 m/S 622 mmHg 95%
    18:00 +18°C° 2 mm 1 m/S 622 mmHg 97%
    19:00 +15°C° 2 mm 0 m/S 622 mmHg 98%
    20:00 +15°C° 1.4 mm 0 m/S 622 mmHg 98%
    21:00 +15°C° 1.4 mm 0 m/S 623 mmHg 98%
    22:00 +15°C° 1.4 mm 0 m/S 623 mmHg 98%
    23:00 +15°C° 0.5 mm 0 m/S 623 mmHg 98%

    Morgen, 13 Dezember, Freitag

    Zeit Temperatur Niederschläge Wind Luftdruck Luftfeuchtigkeit
    00:00 +15°C° 0.5 mm 0 m/S 623 mmHg 99%
    01:00 +15°C° 0.5 mm 0 m/S 622 mmHg 99%
    02:00 +15°C° 0.3 mm 0 m/S 622 mmHg 98%
    03:00 +15°C° 0.3 mm 0 m/S 622 mmHg 98%
    04:00 +15°C° 0.3 mm 0 m/S 622 mmHg 98%
    05:00 +15°C° 0.5 mm 0 m/S 622 mmHg 98%
    06:00 +15°C° 0.5 mm 0 m/S 622 mmHg 98%
    07:00 +15°C° 0.5 mm 0 m/S 623 mmHg 98%
    08:00 +15°C° 0.2 mm 0 m/S 623 mmHg 97%
    09:00 +16°C° 0.2 mm 0 m/S 624 mmHg 96%
    10:00 +16°C° 0.2 mm 0 m/S 624 mmHg 94%
    11:00 +17°C° 0.3 mm 0 m/S 624 mmHg 94%
    12:00 +17°C° 0.3 mm 0 m/S 623 mmHg 94%
    13:00 +17°C° 0.3 mm 0 m/S 622 mmHg 94%
    14:00 +19°C° 0.3 mm 1 m/S 622 mmHg 92%
    15:00 +20°C° 0.3 mm 1 m/S 622 mmHg 91%
    16:00 +20°C° 0.3 mm 1 m/S 622 mmHg 89%
    17:00 +19°C° 0.2 mm 1 m/S 622 mmHg 92%
    18:00 +16°C° 0.2 mm 0 m/S 622 mmHg 95%
    19:00 +15°C° 0.2 mm 0 m/S 622 mmHg 98%
    20:00 +15°C° 0 mm 0 m/S 622 mmHg 97%
    21:00 +15°C° 0 mm 0 m/S 623 mmHg 96%
    22:00 +15°C° 0 mm 0 m/S 623 mmHg 96%
    23:00 +15°C° 0 mm 0 m/S 623 mmHg 96%

    übermorgen, 14 Dezember, Samstag

    Zeit Temperatur Niederschläge Wind Luftdruck Luftfeuchtigkeit
    00:00 +15°C° 0 mm 0 m/S 622 mmHg 96%
    01:00 +14°C° 0 mm 0 m/S 622 mmHg 96%
    02:00 +14°C° 0 mm 0 m/S 622 mmHg 96%
    03:00 +14°C° 0 mm 0 m/S 622 mmHg 96%
    04:00 +14°C° 0 mm 0 m/S 622 mmHg 96%
    05:00 +14°C° 0 mm 0 m/S 622 mmHg 96%
    06:00 +15°C° 0 mm 0 m/S 623 mmHg 95%
    07:00 +15°C° 0 mm 0 m/S 623 mmHg 94%
    08:00 +17°C° 0 mm 0 m/S 624 mmHg 89%
    09:00 +18°C° 0 mm 0 m/S 625 mmHg 83%
    10:00 +20°C° 0 mm 0 m/S 626 mmHg 77%
    11:00 +22°C° 0.6 mm 1 m/S 625 mmHg 79%
    12:00 +22°C° 0.6 mm 1 m/S 624 mmHg 80%
    13:00 +23°C° 0.6 mm 1 m/S 624 mmHg 82%
    14:00 +22°C° 1.5 mm 1 m/S 623 mmHg 85%
    15:00 +21°C° 1.5 mm 1 m/S 623 mmHg 89%
    16:00 +21°C° 1.5 mm 1 m/S 622 mmHg 93%
    17:00 +20°C° 0.7 mm 1 m/S 622 mmHg 94%
    18:00 +19°C° 0.7 mm 1 m/S 622 mmHg 96%
    19:00 +16°C° 0.7 mm 0 m/S 622 mmHg 97%
    20:00 +16°C° 1.4 mm 0 m/S 623 mmHg 97%
    21:00 +15°C° 1.4 mm 0 m/S 623 mmHg 97%
    22:00 +15°C° 1.4 mm 0 m/S 624 mmHg 97%
    23:00 +15°C° 1.2 mm 0 m/S 623 mmHg 97%

    15 Dezember, Sonntag

    Zeit Temperatur Niederschläge Wind Luftdruck Luftfeuchtigkeit
    00:00 +15°C° 1.2 mm 0 m/S 623 mmHg 98%
    01:00 +15°C° 1.2 mm 0 m/S 623 mmHg 98%
    02:00 +15°C° 0.6 mm 0 m/S 623 mmHg 98%
    03:00 +15°C° 0.6 mm 0 m/S 623 mmHg 98%
    04:00 +15°C° 0.6 mm 0 m/S 622 mmHg 98%
    05:00 +15°C° 0.3 mm 0 m/S 623 mmHg 97%
    06:00 +15°C° 0.3 mm 0 m/S 623 mmHg 97%
    07:00 +15°C° 0.3 mm 0 m/S 624 mmHg 97%
    08:00 +16°C° 0.1 mm 0 m/S 624 mmHg 95%
    09:00 +17°C° 0.1 mm 0 m/S 625 mmHg 92%
    10:00 +18°C° 0.1 mm 0 m/S 626 mmHg 90%
    11:00 +19°C° 0.3 mm 0 m/S 625 mmHg 88%
    12:00 +21°C° 0.3 mm 1 m/S 625 mmHg 85%
    13:00 +22°C° 0.3 mm 1 m/S 624 mmHg 83%
    14:00 +22°C° 0.7 mm 1 m/S 624 mmHg 84%
    15:00 +21°C° 0.7 mm 1 m/S 623 mmHg 85%
    16:00 +21°C° 0.7 mm 1 m/S 623 mmHg 87%
    17:00 +20°C° 1 mm 1 m/S 623 mmHg 90%
    18:00 +19°C° 1 mm 1 m/S 623 mmHg 94%
    19:00 +16°C° 1 mm 0 m/S 623 mmHg 97%
    20:00 +16°C° 1.5 mm 0 m/S 623 mmHg 97%
    21:00 +16°C° 1.5 mm 0 m/S 623 mmHg 97%
    22:00 +16°C° 1.5 mm 0 m/S 624 mmHg 97%
    23:00 +15°C° 0.8 mm 0 m/S 624 mmHg 97%

    16 Dezember, Montag

    Zeit Temperatur Niederschläge Wind Luftdruck Luftfeuchtigkeit
    00:00 +15°C° 0.8 mm 0 m/S 623 mmHg 97%
    01:00 +15°C° 0.8 mm 0 m/S 623 mmHg 97%
    02:00 +15°C° 0.5 mm 0 m/S 623 mmHg 97%
    03:00 +15°C° 0.5 mm 0 m/S 622 mmHg 97%
    04:00 +15°C° 0.5 mm 0 m/S 622 mmHg 97%
    05:00 +15°C° 0.1 mm 0 m/S 623 mmHg 96%
    06:00 +15°C° 0.1 mm 0 m/S 623 mmHg 96%
    07:00 +15°C° 0.1 mm 0 m/S 624 mmHg 95%
    08:00 +17°C° 0.1 mm 0 m/S 624 mmHg 91%
    09:00 +18°C° 0.1 mm 0 m/S 625 mmHg 87%
    10:00 +19°C° 0.1 mm 0 m/S 625 mmHg 82%
    11:00 +22°C° 0.2 mm 1 m/S 625 mmHg 79%
    12:00 +23°C° 0.2 mm 1 m/S 625 mmHg 76%
    13:00 +23°C° 0.2 mm 1 m/S 624 mmHg 73%
    14:00 +23°C° 0.8 mm 1 m/S 624 mmHg 78%
    15:00 +22°C° 0.8 mm 1 m/S 623 mmHg 83%
    16:00 +21°C° 0.8 mm 1 m/S 622 mmHg 88%
    17:00 +20°C° 0.6 mm 1 m/S 622 mmHg 91%
    18:00 +19°C° 0.6 mm 1 m/S 622 mmHg 94%
    19:00 +16°C° 0.6 mm 0 m/S 622 mmHg 97%
    20:00 +16°C° 0.2 mm 0 m/S 623 mmHg 97%
    21:00 +16°C° 0.2 mm 0 m/S 623 mmHg 97%
    22:00 +16°C° 0.2 mm 0 m/S 624 mmHg 97%
    23:00 +16°C° 0.1 mm 0 m/S 623 mmHg 97%

    17 Dezember, Dienstag

    Zeit Temperatur Niederschläge Wind Luftdruck Luftfeuchtigkeit
    00:00 +15°C° 0.1 mm 0 m/S 623 mmHg 97%
    01:00 +15°C° 0.1 mm 0 m/S 622 mmHg 97%
    02:00 +15°C° 0.1 mm 0 m/S 622 mmHg 97%
    03:00 +15°C° 0.1 mm 0 m/S 622 mmHg 97%
    04:00 +15°C° 0.1 mm 0 m/S 622 mmHg 97%
    05:00 +16°C° 0 mm 0 m/S 622 mmHg 96%
    06:00 +16°C° 0 mm 0 m/S 623 mmHg 96%
    07:00 +16°C° 0 mm 0 m/S 623 mmHg 95%
    08:00 +18°C° 0.1 mm 0 m/S 624 mmHg 88%
    09:00 +20°C° 0.1 mm 0 m/S 624 mmHg 81%
    10:00 +24°C° 0.1 mm 1 m/S 625 mmHg 74%
    11:00 +23°C° 1.3 mm 1 m/S 624 mmHg 78%
    12:00 +23°C° 1.3 mm 1 m/S 624 mmHg 82%
    13:00 +22°C° 1.3 mm 1 m/S 623 mmHg 87%
    14:00 +22°C° 1.7 mm 1 m/S 622 mmHg 89%
    15:00 +21°C° 1.7 mm 1 m/S 622 mmHg 90%
    16:00 +21°C° 1.7 mm 1 m/S 621 mmHg 92%
    17:00 +20°C° 1.3 mm 1 m/S 621 mmHg 94%
    18:00 +19°C° 1.3 mm 1 m/S 621 mmHg 96%
    19:00 +16°C° 1.3 mm 0 m/S 621 mmHg 97%
    20:00 +16°C° 1.4 mm 0 m/S 622 mmHg 97%
    21:00 +16°C° 1.4 mm 0 m/S 622 mmHg 97%
    22:00 +16°C° 1.4 mm 0 m/S 623 mmHg 97%
    23:00 +15°C° 0.8 mm 0 m/S 623 mmHg 97%
    Mehr zeigen